Location: Croissy-Beaubourg
(48.8283°N, 2.6696°E)
Time: 03:32:58
(UTC+00:00)

Cosmos 2082 - Pass Details

Date: 17 August 2022
Orbit: 832 x 856 km, 71.0° (Epoch: 29 September)

Event Time Altitude Azimuth Distance (km) Brightness Sun altitude
Rises 03:34:18 0° 330° (NNW) 3,408 6.9 -11.0°
Reaches altitude 10° 03:36:44 10° 330° (NNW) 2,473 6.2 -10.7°
Maximum altitude 03:42:25 79° 245° (WSW) 869 3.7 -9.9°
Drops below altitude 10° 03:48:06 10° 159° (SSE) 2,473 6.0 -9.1°
Sets 03:50:33 0° 158° (SSE) 3,408 6.7 -8.8°
